Weather History for West Palm Beach, FL

Change the Weather History Date:

Thursday, October 25, 2012

  Actual Average Record
Temperature  
Mean Temperature 78 °F 77 °F  
Max Temperature 82 °F 84 °F 90 °F (1925)
Min Temperature 74 °F 70 °F 52 °F (2005)
Degree Days  
Heating Degree Days 0 0  
Month to date heating degree days 0 0  
Since 1 July heating degree days 0 0  
Cooling Degree Days 13 12  
Month to date cooling degree days 406 347  
Year to date cooling degree days 3823 3555  
Growing Degree Days 28 (Base 50)    
Moisture  
Dew Point 70 °F    
Average Humidity 73    
Maximum Humidity 79    
Minimum Humidity 67    
Precipitation  
Precipitation 0.24 in 0.15 in 1.94 in (1921)
Month to date precipitation 7.83 4.25  
Year to date precipitation 75.23 53.32  
Snow  
Snow 0.00 in - - ()
Month to date snowfall 0.0  
Since 1 July snowfall 0.0  
Since 1 September snowfall 0.0  
Snow Depth 0.00 in    
Sea Level Pressure  
Sea Level Pressure 29.75 in    
Wind  
Wind Speed 17 mph (NE)    
Max Wind Speed 30 mph    
Max Gust Speed 41 mph    
Visibility 9 miles    
Events Rain    
T = Trace of Precipitation, MM = Missing Value Source: NWS Daily Summary

Daily Weather History Graph

Daily Weather History Graph

Search for Another Location

Airport:

Trip Planner

Search our weather history database for the weather conditions in past years. The results will help you decide how hot, cold, wet, or windy it might be!

Date:

Astronomy

Oct. 25, 2012 Rise Set
Actual Time 7:25 AM EDT 6:42 PM EDT
Civil Twilight 7:02 AM EDT 7:06 PM EDT
Nautical Twilight 6:34 AM EDT 7:33 PM EDT
Astronomical Twilight 6:07 AM EDT 8:00 PM EDT
Moon 4:10 PM EDT (10/25) 3:41 AM EDT (10/25)
Length of Visible Light 12h 04m
Length of Day
11h 16m
Waxing Gibbous, 84% of the Moon is Illuminated
Oct 25
Waxing Gibbous
Oct 29
Full
Nov 6
Last Quarter
Nov 13
New
Nov 20
First Quarter

Hourly Weather History & Observations

Time (EDT) Temp. Heat Index Dew Point Humidity Pressure Visibility Wind Dir Wind Speed Gust Speed Precip Events Conditions
12:53 AM 80.1 °F 83.6 °F 71.1 °F 74% 29.84 in 10.0 mi East 19.6 mph 25.3 mph N/A   Mostly Cloudy
1:53 AM 80.1 °F 83.2 °F 70.0 °F 71% 29.83 in 10.0 mi East 13.8 mph 20.7 mph N/A   Overcast
2:53 AM 81.0 °F 83.8 °F 68.0 °F 65% 29.79 in 10.0 mi East 16.1 mph 25.3 mph N/A   Mostly Cloudy
3:53 AM 81.0 °F 84.4 °F 70.0 °F 69% 29.78 in 10.0 mi NE 13.8 mph - N/A   Mostly Cloudy
4:53 AM 81.0 °F 84.1 °F 69.1 °F 67% 29.77 in 10.0 mi ENE 15.0 mph 24.2 mph N/A   Overcast
5:53 AM 81.0 °F 84.4 °F 70.0 °F 69% 29.77 in 10.0 mi ENE 17.3 mph 24.2 mph N/A   Overcast
6:53 AM 81.0 °F 84.4 °F 70.0 °F 69% 29.78 in 10.0 mi ENE 16.1 mph 24.2 mph N/A   Mostly Cloudy
7:53 AM 81.0 °F 84.4 °F 70.0 °F 69% 29.79 in 10.0 mi ENE 15.0 mph 25.3 mph N/A   Overcast
8:18 AM 80.6 °F 83.9 °F 69.8 °F 70% 29.79 in 7.0 mi NE 25.3 mph 36.8 mph 0.00 in Rain Heavy Rain
8:51 AM 80.6 °F 84.6 °F 71.6 °F 74% 29.79 in 10.0 mi ENE 18.4 mph 31.1 mph 0.06 in   Overcast
8:53 AM 80.1 °F 83.6 °F 71.1 °F 74% 29.79 in 10.0 mi ENE 18.4 mph 31.1 mph 0.06 in   Overcast
9:53 AM 80.1 °F 83.8 °F 72.0 °F 76% 29.80 in 10.0 mi NE 13.8 mph 20.7 mph 0.00 in   Overcast
10:53 AM 81.0 °F 85.2 °F 72.0 °F 74% 29.80 in 10.0 mi ENE 17.3 mph 25.3 mph 0.00 in Rain Light Rain
11:17 AM 77.0 °F - 71.6 °F 83% 29.80 in 6.0 mi ENE 17.3 mph 31.1 mph 0.04 in Rain Light Rain
11:38 AM 78.8 °F - 73.4 °F 83% 29.79 in 2.5 mi East 13.8 mph - 0.06 in Rain Heavy Rain
11:42 AM 78.8 °F - 73.4 °F 83% 29.79 in 6.0 mi East 11.5 mph - 0.09 in Rain Light Rain
11:53 AM 80.1 °F 84.5 °F 73.9 °F 81% 29.78 in 10.0 mi ENE 17.3 mph 24.2 mph 0.09 in Rain Light Rain
12:18 PM 80.6 °F 84.6 °F 71.6 °F 74% 29.78 in 1.5 mi East 23.0 mph 31.1 mph 0.00 in Rain Heavy Rain
12:22 PM 77.0 °F - 69.8 °F 78% 29.77 in 6.0 mi ENE 16.1 mph 31.1 mph 0.05 in Rain Light Rain
12:48 PM 80.6 °F 85.4 °F 73.4 °F 79% 29.76 in 10.0 mi ENE 19.6 mph 31.1 mph 0.05 in   Overcast
12:53 PM 81.0 °F 84.9 °F 71.1 °F 72% 29.76 in 10.0 mi ENE 20.7 mph 31.1 mph 0.05 in   Overcast
1:53 PM 82.0 °F 86.3 °F 71.1 °F 69% 29.73 in 10.0 mi NE 17.3 mph 28.8 mph N/A   Overcast
2:24 PM 80.6 °F 84.6 °F 71.6 °F 74% 29.72 in 10.0 mi NE 19.6 mph 33.4 mph 0.00 in Rain Light Rain
2:53 PM 78.1 °F - 71.1 °F 79% 29.72 in 10.0 mi NE 18.4 mph 25.3 mph 0.00 in Rain Light Rain
3:40 PM 78.8 °F - 68.0 °F 69% 29.71 in 10.0 mi NE 19.6 mph 28.8 mph 0.00 in Rain Light Rain
3:53 PM 78.1 °F - 68.0 °F 71% 29.71 in 10.0 mi NE 18.4 mph 29.9 mph 0.00 in Rain Light Rain
4:53 PM 77.0 °F - 70.0 °F 79% 29.70 in 10.0 mi NE 19.6 mph 31.1 mph 0.01 in Rain Light Rain
5:31 PM 75.2 °F - 69.8 °F 83% 29.72 in 3.0 mi ENE 20.7 mph 39.1 mph 0.01 in Rain Rain
5:53 PM 77.0 °F - 66.9 °F 71% 29.70 in 10.0 mi NE 20.7 mph 29.9 mph 0.03 in Rain Light Rain
6:16 PM 78.8 °F - 68.0 °F 69% 29.71 in 10.0 mi NE 19.6 mph 32.2 mph 0.00 in Rain Light Rain
6:53 PM 79.0 °F - 70.0 °F 74% 29.70 in 10.0 mi NNE 13.8 mph - 0.00 in   Overcast
7:53 PM 79.0 °F - 71.1 °F 77% 29.69 in 10.0 mi NNE 12.7 mph 25.3 mph 0.00 in Rain Light Rain
8:53 PM 80.1 °F 82.7 °F 68.0 °F 67% 29.70 in 10.0 mi NE 24.2 mph 33.4 mph 0.00 in Rain Light Rain
9:53 PM 78.1 °F - 69.1 °F 74% 29.69 in 10.0 mi NNE 19.6 mph 28.8 mph 0.00 in Rain Light Rain
10:53 PM 79.0 °F - 69.1 °F 72% 29.68 in 10.0 mi NNE 25.3 mph 36.8 mph 0.00 in   Overcast
11:53 PM 79.0 °F - 69.1 °F 72% 29.66 in 10.0 mi NNE 17.3 mph 28.8 mph N/A   Overcast